Wind_Speed
4 4 4 7 6 3 2 1 3 5 5 3 1 3 6 4 3 2 3 4 4 5 6 8 9 12 17 16 11 20 21 19 19 18 18 19 18 18 18 17 18 18 19 21 26 28 29 32 34 35 37 39 40 39 41 43 43 43 42 42 42 43 43
13 15 13 2 9 5 2 1 4 3 4 4 0 0 3 3 2 2 3 6 4 3 4 8 10 11 14 14 10 14 20 20 20 19 19 21 21 20 20 19 18 18 18 21 26 29 31 35 37 38 38 39 40 40 42 43 42 43 43 42 41 41 42
15 15 13 5 4 5 4 3 5 1 2 2 2 0 2 1 2 3 4 7 5 3 4 7 12 12 10 12 11 12 20 22 19 18 20 22 21 19 18 17 16 16 17 22 27 30 32 35 38 40 39 38 39 39 41 44 44 44 44 42 41 40 41
14 10 6 4 2 1 2 5 5 2 3 2 1 2 2 1 2 3 3 5 5 4 4 5 9 11 10 11 11 12 20 23 20 17 18 19 19 17 16 16 17 17 18 24 30 32 33 35 36 38 38 37 38 38 39 42 43 42 42 42 41 41 41
10 5 3 6 8 7 6 6 5 3 1 1 1 2 2 2 3 2 3 4 5 6 5 3 5 7 11 13 8 9 15 20 22 21 19 18 17 17 17 17 17 18 19 24 31 34 34 35 35 37 37 37 37 37 37 40 41 41 41 42 42 41 41
5 7 11 14 13 10 6 4 5 4 4 3 3 3 3 3 1 2 3 3 6 7 3 6 11 12 8 11 9 5 8 16 23 22 20 20 19 17 18 18 18 19 17 21 28 31 32 32 32 34 36 36 36 36 36 38 39 41 42 42 42 42 42
7 11 16 17 15 12 10 7 5 5 4 3 3 3 3 2 2 3 1 2 7 7 7 11 12 18 16 5 8 6 5 12 22 24 23 23 21 19 19 18 18 17 17 21 26 28 30 31 32 34 35 36 36 36 36 37 38 41 42 42 43 42 41
8 10 11 12 10 8 8 7 6 6 7 6 4 3 3 2 1 2 1 1 7 4 11 13 13 20 20 12 6 4 3 3 14 20 21 22 20 20 20 18 17 16 16 19 21 23 27 29 30 33 34 35 36 35 35 37 39 41 41 41 41 41 42
6 6 5 6 7 8 6 7 10 10 12 12 7 5 6 4 3 5 3 3 6 5 13 16 16 18 16 16 19 15 11 11 7 2 7 17 21 19 19 17 16 16 16 16 16 18 24 26 29 32 33 34 36 35 35 36 39 40 40 39 39 40 41
3 4 3 2 6 8 6 9 15 14 14 15 9 5 4 4 5 6 2 4 6 11 16 16 16 16 14 16 19 18 17 18 16 15 9 8 16 17 20 21 17 15 15 15 15 18 23 26 28 31 32 34 36 36 35 35 36 38 39 38 38 38 39
5 6 7 7 8 9 9 13 18 16 13 12 7 3 2 4 7 4 1 3 10 13 15 15 14 14 14 14 15 16 16 17 17 17 16 12 7 5 7 13 17 18 17 17 17 19 24 28 30 31 33 34 36 36 37 36 35 36 37 38 37 37 37
8 9 14 15 12 11 12 14 16 16 14 11 7 4 4 5 7 5 2 7 11 11 11 11 11 12 12 12 14 14 14 15 15 16 18 19 18 17 14 8 2 12 16 18 19 19 23 27 28 30 33 35 37 37 38 37 35 35 36 36 37 37 36
11 11 14 16 14 12 13 13 14 16 16 14 9 8 7 5 5 7 7 10 11 10 9 9 9 10 11 11 12 13 15 15 16 17 19 20 20 19 18 18 15 8 2 5 10 14 20 25 27 28 30 32 34 35 36 36 35 35 35 35 36 35 35
13 13 12 14 15 13 13 14 13 14 16 17 13 11 9 7 9 11 10 10 9 6 4 6 8 8 7 9 11 14 17 17 17 18 19 19 19 18 17 17 17 15 13 10 6 2 4 10 15 20 24 28 31 32 34 34 34 35 35 35 36 36 36
10 13 13 13 14 14 15 15 13 13 17 17 13 11 8 6 9 12 10 8 6 3 2 3 5 6 7 9 11 13 15 16 17 17 18 18 17 16 17 16 15 14 15 14 13 11 9 7 2 3 9 18 26 29 31 33 33 35 36 35 34 35 36
7 9 12 13 13 14 15 15 14 13 14 14 12 9 7 6 8 10 9 6 4 4 5 6 8 8 10 11 11 12 13 15 16 16 17 17 16 16 16 15 15 15 15 14 13 12 11 10 8 5 2 7 18 23 23 23 20 21 26 31 34 36 35
6 8 10 12 12 11 10 10 10 10 10 12 12 10 9 9 8 7 6 4 4 6 7 9 11 11 11 11 10 11 11 13 15 15 16 16 16 16 15 15 15 15 12 12 14 16 16 15 11 7 3 3 11 17 17 15 11 6 11 19 24 31 35
5 7 8 9 8 7 7 5 3 5 6 7 8 8 8 8 6 5 5 6 7 7 7 6 8 8 9 9 9 9 10 11 11 13 15 15 15 15 14 15 15 13 12 14 19 22 22 20 18 12 5 3 8 10 10 14 18 16 14 20 24 25 31
4 5 4 5 5 6 8 6 6 8 7 8 9 8 6 11 11 9 9 9 9 8 8 7 7 6 6 9 11 11 11 11 12 13 13 14 15 15 14 14 13 12 14 16 19 23 26 26 24 21 14 8 4 5 8 12 18 24 26 28 30 30 31
4 3 2 4 5 6 9 8 7 8 6 8 9 6 6 12 12 10 10 9 9 9 9 9 10 8 3 7 11 13 13 12 13 13 13 14 15 14 14 15 14 15 18 19 19 20 22 24 24 24 23 20 15 11 17 21 23 27 30 33 37 36 34
3 4 3 4 7 8 8 5 4 6 6 6 6 3 3 9 10 9 9 9 10 10 10 11 12 12 5 3 8 14 16 14 14 14 14 14 14 15 17 19 19 21 23 23 24 23 21 21 20 20 22 24 22 17 17 25 29 30 30 32 36 37 35
4 4 4 3 6 6 3 2 3 6 7 6 4 2 1 5 9 10 9 10 11 11 10 11 13 10 4 2 5 12 16 15 15 15 14 15 16 17 20 21 22 24 26 25 26 26 24 22 21 20 23 26 26 23 18 18 25 30 30 32 36 37 36
3 4 4 4 5 3 1 4 7 8 7 6 5 3 2 3 8 9 9 11 12 12 11 11 10 6 3 2 5 10 14 14 13 13 13 16 19 20 21 21 22 24 26 25 26 26 25 24 25 24 25 27 26 24 22 19 17 24 30 34 38 39 38
6 6 5 4 3 0 3 7 10 11 9 6 4 3 1 3 7 7 7 9 10 11 11 10 7 5 3 4 6 10 13 12 10 10 10 13 18 21 21 23 24 24 25 25 24 24 25 27 28 26 24 24 24 25 25 22 20 21 27 35 39 38 36
7 8 6 4 2 1 2 6 10 12 8 3 2 2 1 3 6 6 6 6 7 8 9 8 5 4 5 7 9 10 11 11 11 10 11 13 18 21 22 24 26 25 24 24 23 23 26 29 29 26 24 22 23 25 25 24 24 24 25 30 34 33 31
4 5 5 4 3 2 2 5 7 6 4 2 2 2 3 5 6 7 6 5 5 5 7 6 6 8 9 10 11 10 10 10 10 11 13 15 17 19 22 24 26 25 24 24 24 24 26 29 28 26 25 24 25 25 24 26 29 29 27 27 30 31 29
2 2 4 4 2 1 5 8 5 2 2 2 2 3 4 5 6 7 6 6 5 5 6 7 9 11 12 11 11 11 10 9 10 10 11 12 13 17 21 23 25 25 23 23 24 24 25 27 28 26 25 25 27 25 25 29 32 30 29 29 31 34 33
1 2 2 2 2 2 5 6 3 1 3 2 2 4 5 5 5 5 5 5 6 7 8 8 9 11 11 11 11 11 11 9 9 10 11 11 12 15 19 22 25 25 23 23 24 24 24 27 29 28 25 26 27 28 31 34 32 29 30 33 33 37 37
2 3 2 2 3 4 4 3 2 3 5 4 4 6 6 5 5 5 5 6 7 8 9 9 9 9 10 10 10 11 11 10 9 10 11 11 11 14 19 22 24 24 23 24 24 23 25 29 30 29 27 26 27 31 35 37 33 30 32 33 34 38 38
2 4 4 1 3 5 6 2 1 3 5 5 6 7 6 6 6 6 6 7 8 8 9 9 9 9 10 10 10 10 11 11 10 10 11 12 12 15 18 21 23 24 24 24 24 24 26 30 33 35 32 28 28 33 38 38 34 33 35 34 34 38 38
1 2 2 1 5 7 5 3 3 5 6 6 6 6 6 7 7 7 7 8 8 9 9 9 10 11 11 11 10 9 10 10 9 8 9 12 14 15 18 21 23 25 24 22 23 25 27 30 37 41 40 38 36 36 37 35 32 34 37 33 32 36 36
3 4 3 4 7 6 2 2 4 5 5 7 8 7 7 8 8 8 9 9 8 8 9 10 12 13 13 11 10 9 9 9 9 7 8 12 15 16 19 21 21 22 23 21 23 25 27 32 41 45 44 44 43 38 33 30 30 34 33 30 32 34 34
5 5 3 5 7 5 1 3 6 6 6 8 10 10 10 10 10 9 9 10 10 10 10 10 12 13 13 11 11 11 9 8 9 9 10 13 15 16 19 20 20 21 23 22 23 25 28 36 45 46 44 42 38 32 29 28 29 31 26 24 32 32 32
4 3 2 3 4 5 3 5 8 8 7 9 10 10 10 11 10 10 10 11 12 12 13 13 12 12 13 12 12 11 9 9 12 14 13 13 13 15 18 19 19 22 24 24 24 27 31 38 44 42 39 37 34 30 28 27 27 26 21 16 25 27 27
4 4 3 1 2 4 5 6 8 7 7 8 9 9 9 10 10 10 10 10 11 12 12 14 15 13 13 14 15 12 10 12 16 18 16 13 11 13 16 17 18 22 26 26 25 27 31 36 38 36 33 33 32 29 27 25 23 23 18 11 14 20 22
4 5 4 2 3 4 5 6 7 6 6 7 9 10 10 9 10 11 10 10 11 10 10 14 17 17 17 17 17 13 12 15 18 19 18 15 12 12 14 14 16 21 24 24 25 27 30 33 35 35 33 32 32 30 27 24 22 20 17 13 11 16 20
4 4 3 2 3 4 5 5 5 6 6 7 9 11 11 11 13 14 12 11 12 13 12 13 17 20 20 19 19 16 15 17 19 20 19 16 13 11 10 11 15 19 22 25 26 27 29 32 34 35 32 31 32 33 30 25 20 18 17 16 14 13 13
Wind_Direction
345 357 278 200 194 263 322 239 208 214 223 221 209 279 291 282 274 264 231 265 261 210 213 220 205 199 222 243 207 179 184 179 174 179 182 186 189 187 188 188 187 187 186 185 185 185 184 184 185 186 186 187 187 187 187 189 191 192 192 192 191 192 193
351 352 327 234 159 186 251 272 269 234 208 229 214 320 295 293 276 260 257 276 265 208 218 219 215 208 210 229 225 179 174 176 179 183 184 186 189 188 187 186 184 184 185 185 186 187 186 186 187 188 188 188 188 188 188 189 190 192 194 193 193 194 194
344 343 337 355 128 187 206 254 293 355 142 249 322 298 241 269 284 274 276 286 281 239 229 205 210 221 207 209 217 183 171 178 182 183 186 188 188 187 186 184 182 184 186 186 187 187 187 186 188 189 189 189 189 189 189 189 191 193 194 194 194 196 197
340 330 339 359 16 241 323 321 314 55 128 196 246 255 225 162 235 266 285 285 280 265 254 225 224 232 213 204 211 187 173 178 181 182 187 190 188 185 184 182 183 184 185 186 188 188 188 187 187 188 189 189 190 190 189 189 191 192 193 194 195 197 199
339 314 329 355 360 1 357 336 324 345 354 245 238 263 248 191 194 234 267 276 275 265 260 288 309 274 228 208 199 191 179 174 176 182 186 187 186 185 184 182 182 184 184 185 187 189 189 188 187 187 189 190 191 192 191 190 190 191 193 195 196 197 200
336 312 318 329 335 333 325 310 305 308 312 303 279 265 255 230 180 196 212 246 271 265 306 4 3 351 286 215 176 178 189 169 171 179 183 184 184 184 185 183 182 183 183 183 185 187 188 187 186 187 189 191 192 193 193 190 189 191 193 195 196 197 200
308 304 308 311 313 321 320 305 292 286 288 297 275 271 276 261 348 336 208 211 259 268 13 12 6 11 356 281 189 196 209 168 169 176 179 180 181 183 184 182 182 185 182 180 183 186 188 188 186 187 190 193 194 194 193 191 190 192 194 196 197 197 199
304 301 300 297 305 335 329 309 324 329 319 327 326 322 319 268 290 348 77 228 260 286 24 16 12 24 17 356 334 296 296 137 162 177 181 178 178 182 184 181 181 184 180 178 181 185 188 188 187 188 190 192 193 194 192 190 191 193 194 196 198 197 199
320 319 323 316 336 359 337 311 336 345 340 345 1 16 347 321 355 35 71 235 267 342 14 12 16 24 23 12 5 3 7 27 57 115 188 180 178 179 179 180 181 180 178 177 179 182 185 185 185 188 191 191 192 194 193 191 191 192 193 195 198 199 200
301 317 350 352 343 344 324 316 325 333 346 354 5 16 344 324 355 21 76 244 298 349 358 1 11 14 17 18 14 14 17 24 30 22 24 153 175 179 179 179 178 176 178 178 179 180 182 183 183 185 189 191 192 194 195 193 191 190 192 194 198 200 200
267 289 296 298 314 315 309 316 317 318 334 345 353 1 331 321 326 326 151 299 325 343 348 353 4 5 9 18 16 15 16 21 29 26 31 55 79 109 164 181 179 176 177 178 180 182 183 185 184 184 188 192 194 195 196 197 195 192 192 194 198 200 200
267 277 285 291 298 296 295 304 306 308 315 322 329 314 306 332 319 296 11 352 329 332 340 351 3 359 360 11 15 18 17 18 28 32 33 39 43 44 37 21 167 179 180 180 181 181 184 185 184 185 189 193 196 197 197 198 198 196 196 197 199 200 199
288 286 287 291 292 288 288 291 296 305 308 310 311 296 297 325 298 286 336 338 320 329 342 348 355 352 355 359 5 22 24 15 22 32 34 34 36 40 38 28 24 26 41 181 185 184 185 186 185 186 190 192 196 199 199 200 200 200 199 200 202 202 200
297 297 296 295 294 291 286 284 292 302 300 295 292 284 287 298 282 284 308 314 312 334 345 337 341 346 1 2 2 21 27 18 19 27 31 32 31 31 33 34 31 21 14 19 25 51 171 185 187 190 193 194 195 197 199 200 201 201 201 202 203 203 203
293 294 293 288 288 288 284 283 287 291 290 288 285 284 289 289 281 287 297 301 307 309 270 318 350 3 26 26 13 19 26 22 19 24 27 26 24 24 25 28 28 19 11 15 21 22 20 24 64 176 198 199 199 199 200 203 204 202 202 203 205 207 207
276 284 289 288 288 287 283 280 276 273 276 282 284 284 291 290 288 296 303 314 335 336 337 352 357 12 37 40 23 16 22 22 20 22 25 21 18 17 18 20 22 18 8 3 6 7 6 15 37 53 70 193 197 198 199 202 206 208 209 209 208 210 211
275 279 290 301 302 290 272 265 267 269 273 281 284 281 284 291 295 300 310 349 23 16 24 12 351 4 35 43 31 20 15 16 19 20 19 18 14 12 12 13 13 11 4 353 351 354 357 3 11 20 29 179 186 187 189 188 185 219 263 253 235 219 211
274 283 293 305 301 281 270 276 326 335 322 325 318 302 310 332 348 358 8 27 24 18 34 21 344 358 38 50 47 39 21 12 15 18 17 13 9 7 8 9 6 4 1 352 343 342 343 345 347 349 340 211 185 182 189 190 186 198 241 267 269 251 221
269 288 300 291 265 253 270 296 17 10 354 8 351 321 353 21 18 19 23 24 20 12 8 354 333 341 37 55 48 39 33 23 12 12 14 9 3 2 1 359 358 360 359 352 342 335 334 334 337 339 333 316 282 233 226 212 202 207 214 220 232 242 231
265 260 223 238 260 277 279 292 6 14 360 15 358 331 32 38 22 16 14 5 7 10 360 346 329 316 344 69 46 26 26 29 18 10 10 6 1 358 355 350 351 356 352 343 336 331 329 330 331 332 331 328 324 288 246 229 216 214 215 213 214 223 227
225 244 234 244 276 291 283 279 3 357 336 6 7 319 34 36 21 11 3 354 359 4 360 347 328 311 303 87 43 13 9 15 17 11 5 3 358 352 349 347 346 348 344 337 334 331 329 330 330 331 330 327 326 313 266 233 216 209 212 217 216 219 223
203 236 254 257 263 270 266 263 326 320 313 341 1 291 274 34 19 6 359 355 355 357 360 349 329 315 309 80 30 5 358 1 10 7 358 357 356 349 346 346 344 342 339 337 334 331 329 332 333 335 334 328 323 319 300 253 223 210 209 218 221 221 220
212 216 229 240 242 241 331 324 318 317 317 332 339 298 253 18 5 0 3 357 351 353 356 348 341 344 357 4 4 356 348 351 4 2 351 348 349 346 344 344 340 337 336 335 333 331 330 332 334 335 334 329 318 307 303 293 258 226 215 217 221 222 219
226 223 232 244 232 160 15 342 323 318 319 323 311 268 258 357 346 350 3 355 346 349 349 344 354 14 357 324 335 340 337 340 351 355 349 343 342 343 343 341 337 335 335 334 332 330 329 329 331 332 330 323 311 299 296 299 289 259 233 222 219 220 219
224 221 230 242 222 185 355 332 313 307 307 292 237 240 284 315 317 327 346 345 340 345 345 342 346 350 331 320 324 330 332 332 333 341 347 342 340 341 341 337 335 335 334 333 330 327 327 327 327 329 328 317 305 302 300 294 287 279 263 239 225 220 217
230 212 223 243 235 217 287 308 305 308 308 249 227 282 276 275 303 325 330 331 336 337 334 329 321 319 321 321 319 322 329 328 326 334 342 340 338 340 339 336 335 334 331 330 328 325 326 327 325 325 324 315 304 301 298 290 284 283 281 263 239 225 216
271 211 212 227 227 286 323 322 327 360 353 281 273 297 287 290 318 330 323 325 334 328 319 318 315 314 316 315 314 318 322 323 322 326 331 331 331 336 337 334 332 330 327 327 327 325 325 326 323 321 318 311 305 300 291 287 287 285 285 277 252 229 217
332 243 230 258 251 274 305 309 308 332 325 314 307 305 303 311 322 322 319 322 326 322 318 315 312 311 310 309 312 315 316 319 322 321 319 319 323 332 334 329 326 325 323 324 325 324 326 327 324 321 316 308 303 297 290 291 293 287 284 279 254 228 217
259 240 254 302 281 274 289 283 277 322 327 336 338 324 318 318 314 311 314 311 312 317 316 312 308 303 301 304 309 313 313 314 315 315 312 313 321 330 329 325 322 320 320 323 324 321 324 328 326 322 317 308 300 296 295 298 296 289 286 278 249 223 213
261 235 225 239 305 318 326 334 5 351 345 349 346 333 321 314 311 311 309 306 308 311 307 303 301 295 293 298 302 305 307 306 305 307 309 314 325 330 327 322 320 320 320 322 323 322 321 325 329 328 322 311 299 296 299 301 297 292 290 278 244 219 210
320 252 230 9 343 326 326 360 14 354 346 341 332 319 306 303 301 297 296 297 300 302 300 298 297 295 295 296 298 299 300 299 299 301 306 315 323 326 323 321 321 321 320 320 323 324 320 321 329 332 327 319 312 306 304 302 299 299 294 274 238 214 206
274 261 284 352 336 305 277 44 4 338 335 331 319 308 302 298 296 296 298 299 298 297 298 298 297 296 295 292 290 290 290 293 297 296 300 310 318 321 320 320 321 321 317 317 322 322 318 323 331 331 326 322 319 315 309 304 305 309 297 262 227 209 201
268 264 300 351 334 300 282 7 340 329 335 326 313 307 305 303 303 305 305 305 303 298 297 298 296 293 292 290 287 286 288 292 293 291 296 302 307 313 316 317 319 320 316 317 322 321 319 327 332 330 325 323 320 314 310 307 308 314 301 250 219 206 197
270 279 320 355 322 293 300 326 324 327 331 317 306 308 310 307 306 304 302 302 299 294 293 294 293 292 291 290 288 285 285 289 289 289 293 296 300 310 314 314 318 320 318 320 325 326 326 331 333 328 324 324 320 311 309 308 306 310 305 253 215 204 195
260 280 291 244 239 269 285 305 317 322 318 307 304 306 304 302 302 300 298 298 296 293 292 291 290 290 290 289 288 285 283 286 287 287 288 289 297 309 312 312 318 322 321 322 328 331 331 333 333 326 322 322 321 315 312 312 308 305 299 264 210 193 186
264 279 282 240 231 265 282 297 306 304 303 307 309 305 301 301 301 298 295 292 291 292 293 291 289 288 286 285 284 283 283 284 284 284 283 284 290 300 304 308 318 322 321 322 328 331 332 333 331 327 322 322 326 327 322 318 315 306 294 274 228 195 183
263 275 281 263 258 269 279 289 293 297 310 318 311 305 305 304 301 298 296 293 292 292 291 290 288 285 284 282 281 279 279 279 280 283 284 282 280 288 296 306 317 322 322 323 327 330 332 332 330 327 323 324 329 332 329 322 316 306 292 275 251 228 209
Height
721 728 725 717 731 745 741 739 748 745 732 739 760 767 754 756 778 772 752 748 733 720 715 698 693 699 692 688 692 698 705 707 711 718 718 720 721 720 722 724 726 728 730 734 738 742 746 750 755 759 763 767 770 774 778 782 786 789 792 794 797 800 803
727 723 723 715 718 730 743 751 743 729 729 735 750 770 770 770 786 771 747 748 743 737 733 709 696 702 697 691 690 695 703 707 711 713 712 713 713 714 716 717 720 724 726 730 734 737 741 745 749 754 758 762 766 770 773 777 782 785 788 791 794 798 800
738 723 728 731 722 720 733 739 730 734 756 761 758 772 781 784 791 776 754 748 741 738 732 713 704 703 697 692 687 691 702 705 708 710 709 709 709 711 714 716 719 721 723 726 729 733 737 741 745 749 754 759 762 766 769 773 777 781 785 788 791 795 797
748 737 739 747 741 729 727 730 729 736 753 763 763 763 766 777 789 783 769 758 745 728 715 709 708 699 692 690 684 685 694 698 702 705 707 708 708 710 711 713 716 717 718 721 724 729 733 737 742 746 751 755 758 762 765 768 773 777 782 785 787 790 794
759 757 750 752 756 754 752 753 752 750 747 749 755 755 751 761 778 782 780 775 751 716 699 701 704 697 688 683 681 681 682 688 694 697 700 704 705 706 707 708 710 712 714 717 721 726 730 734 739 742 746 750 754 758 761 764 769 773 777 780 782 786 789
776 769 753 749 755 758 760 763 760 760 759 757 765 768 753 747 761 769 772 776 751 709 693 697 701 699 687 675 677 679 676 681 688 690 693 697 699 701 702 702 705 707 709 714 718 723 727 731 735 739 743 747 750 754 757 761 765 768 772 775 777 780 784
780 770 755 751 753 750 751 754 752 752 755 758 770 778 761 750 758 757 759 768 744 703 694 702 702 700 689 676 675 676 674 676 680 682 684 688 692 695 696 698 701 703 705 710 715 720 724 727 731 735 739 742 746 749 753 757 760 762 766 770 773 776 779
777 767 757 750 748 751 756 754 749 752 755 755 761 767 760 757 760 758 767 776 744 705 703 710 706 701 696 690 684 679 677 675 677 679 679 682 687 689 692 695 697 700 703 707 712 717 720 723 727 731 734 738 741 745 748 751 754 757 761 766 770 772 775
797 783 774 770 766 768 773 766 758 760 760 756 759 762 764 768 766 763 777 780 747 717 716 718 714 710 707 705 699 692 689 686 685 686 681 680 684 686 690 694 696 700 703 706 710 713 716 720 723 727 731 734 737 740 743 746 749 753 757 762 766 768 770
825 810 803 803 798 790 785 776 768 766 765 765 769 774 781 786 779 771 777 776 753 735 730 727 725 724 719 715 711 705 702 696 693 690 685 682 684 686 688 691 695 699 702 704 707 709 713 716 719 723 727 730 733 736 739 742 745 749 752 757 761 764 766
825 819 811 805 803 801 795 787 778 773 773 772 774 783 789 786 782 778 772 767 761 752 743 737 734 733 730 725 720 716 712 706 701 698 694 692 692 692 691 690 692 695 698 702 704 706 709 712 715 719 722 726 730 732 736 739 742 746 749 753 757 760 762
811 810 805 796 798 802 798 792 786 778 774 774 776 784 783 778 784 785 768 760 766 761 749 744 741 738 737 733 726 722 719 714 710 707 704 703 701 700 702 701 698 696 697 699 700 702 705 708 711 715 718 722 725 728 732 736 740 743 746 749 752 755 758
806 804 801 795 795 796 792 790 788 782 778 778 779 780 774 773 784 784 769 764 767 760 751 750 745 740 741 739 731 725 722 719 716 713 712 713 712 711 712 710 708 707 706 703 701 701 703 705 709 711 715 719 722 726 730 734 737 740 743 747 749 752 754
809 804 803 798 795 795 792 788 786 785 783 778 776 774 768 769 774 770 765 766 764 757 755 752 745 741 742 742 736 729 726 725 723 721 720 721 722 722 720 717 717 718 716 712 710 709 708 709 711 712 715 717 720 724 727 731 735 738 741 744 746 748 749
816 807 803 801 799 797 793 788 786 787 785 778 774 771 767 769 770 763 762 766 762 754 751 747 743 741 743 746 745 737 732 731 730 729 729 728 729 730 726 723 723 723 721 719 717 717 716 716 716 717 718 719 721 723 726 730 733 736 740 742 744 745 745
822 811 806 804 799 796 795 792 788 787 785 780 774 770 767 769 771 767 766 770 768 758 752 750 747 744 746 751 751 745 740 737 736 737 736 735 735 735 732 729 727 726 726 725 724 722 721 719 718 718 719 720 722 724 728 731 735 739 742 743 743 744 745
824 813 811 808 805 809 806 793 783 782 782 779 774 770 767 765 767 771 773 775 773 764 759 760 757 752 752 754 754 753 749 744 742 742 742 741 740 740 738 735 732 730 730 729 729 727 725 724 722 720 719 720 721 723 726 729 733 740 746 748 748 746 746
827 817 812 813 821 825 808 782 776 781 780 781 782 778 773 770 771 775 776 774 772 767 764 766 763 757 756 755 755 756 754 751 748 745 745 745 744 743 743 740 738 737 735 734 733 731 728 726 724 722 721 720 720 721 723 726 729 734 742 751 754 751 747
824 817 818 828 833 820 793 775 778 781 777 780 784 779 777 780 781 780 779 777 774 771 769 767 763 757 754 754 754 754 754 754 751 748 747 747 746 747 746 744 743 742 741 739 738 735 731 726 724 724 722 721 721 721 722 724 727 729 733 741 746 747 744
822 821 826 832 821 800 784 782 785 784 781 784 787 786 785 788 788 787 786 782 777 774 772 767 762 756 751 750 753 753 753 754 753 752 750 749 750 750 749 747 745 744 743 742 740 738 734 729 725 725 723 722 724 724 722 722 724 726 729 732 734 736 738
820 823 823 818 809 799 794 793 793 793 791 791 795 798 794 792 792 791 790 787 781 778 776 770 763 755 748 751 756 754 752 753 753 754 753 751 753 754 752 750 748 746 745 741 738 736 734 731 730 728 726 723 723 724 722 720 721 723 725 727 727 729 731
816 821 823 820 818 812 805 800 797 795 792 789 792 797 796 795 795 793 791 790 785 781 779 775 767 757 751 758 763 759 755 754 753 754 754 754 755 755 753 752 750 748 745 741 737 734 731 730 730 729 727 723 721 722 721 719 720 719 720 721 722 723 724
816 819 823 822 818 813 807 804 799 793 789 787 791 798 799 798 798 794 793 793 789 785 782 779 773 768 766 769 769 765 761 759 757 758 758 757 758 757 754 753 751 749 746 742 739 734 730 728 727 727 726 723 721 721 720 719 718 716 714 715 715 716 717
818 818 819 815 810 809 808 806 801 794 789 789 799 806 803 798 798 795 794 795 793 789 786 782 780 781 781 779 774 768 766 764 762 763 763 761 760 756 753 752 751 749 746 742 739 735 731 728 727 727 727 725 723 721 718 716 715 712 710 709 709 711 712
816 818 819 812 808 809 808 806 804 798 791 795 806 809 802 799 798 793 791 794 793 792 791 788 786 785 782 779 774 770 768 766 763 762 762 762 759 756 754 753 750 746 744 742 739 736 732 728 726 726 727 726 723 720 716 713 710 708 708 707 706 707 708
814 816 817 811 807 808 806 803 801 797 797 803 806 803 800 799 797 792 791 792 791 791 792 791 788 784 780 777 774 770 769 768 765 761 759 759 758 756 755 753 751 747 744 741 739 736 732 728 725 725 725 723 721 718 715 710 705 704 704 704 703 703 704
816 814 813 811 810 809 806 804 801 799 802 805 803 800 799 797 793 792 792 790 789 790 790 790 788 784 780 777 774 771 769 768 766 763 761 759 758 756 754 753 752 750 747 743 740 736 732 729 725 724 723 720 717 715 711 706 703 702 701 700 700 699 699
821 818 814 813 814 811 807 807 805 802 801 800 798 798 797 794 793 793 792 790 789 788 788 787 787 785 781 778 774 770 769 768 767 765 763 760 758 756 755 753 752 751 748 743 739 735 732 729 725 723 722 718 714 710 705 701 701 701 698 696 696 694 694
822 820 817 815 814 809 805 805 803 801 799 797 797 798 796 795 794 792 791 791 789 787 787 787 786 784 782 778 774 771 769 767 766 765 764 761 758 755 754 753 752 751 747 741 736 733 731 728 724 721 720 717 712 705 699 698 698 696 694 692 690 688 688
816 814 812 811 810 806 803 802 801 800 799 798 797 797 796 795 794 792 791 790 787 786 787 785 784 784 781 777 774 772 770 767 765 764 763 761 758 755 753 752 751 749 746 740 734 730 727 725 722 718 716 714 710 702 696 694 693 691 688 686 683 682 682
818 814 808 806 807 806 804 802 801 800 799 798 798 798 797 795 793 791 790 788 786 786 785 784 783 782 779 777 775 772 770 768 765 763 761 759 757 755 752 750 750 748 744 739 733 728 724 721 718 714 711 708 704 699 694 690 688 685 681 678 676 676 676
817 811 805 804 806 804 801 802 802 800 799 799 797 796 795 793 791 790 788 786 785 784 783 782 781 779 777 776 773 771 769 768 765 762 760 757 755 753 751 750 750 748 744 738 732 727 722 719 715 712 708 703 698 694 691 688 686 681 675 672 671 671 672
814 808 805 806 806 802 799 800 801 799 799 799 797 795 793 791 789 788 787 786 784 782 781 780 778 776 775 773 770 768 767 765 764 761 758 755 754 752 750 749 749 747 744 738 732 726 721 717 712 708 705 700 695 691 689 686 684 679 673 668 668 668 668
816 810 808 809 810 807 803 801 800 799 799 798 796 794 792 791 789 788 786 785 783 781 779 778 776 774 772 769 768 766 764 763 762 759 756 754 752 750 749 749 747 745 742 737 731 726 721 716 711 707 702 698 694 690 688 685 682 678 673 668 666 666 666
813 808 806 806 808 808 804 800 799 799 798 797 795 794 792 791 789 787 785 783 782 780 778 776 775 772 769 767 765 762 760 760 759 756 753 751 749 749 748 747 746 744 740 735 730 725 721 716 712 707 702 698 693 689 686 683 681 678 673 669 666 664 664
805 803 802 803 804 804 802 800 799 798 797 796 795 793 791 789 787 785 783 781 780 778 775 773 772 771 768 765 763 760 758 757 755 753 750 748 747 748 747 746 745 742 738 733 728 724 721 718 713 708 703 698 693 689 685 682 680 677 674 671 667 664 662
802 800 799 799 800 800 799 798 797 796 795 795 794 791 789 787 785 783 781 779 777 775 773 771 770 768 766 763 760 758 755 753 752 750 747 745 745 746 746 746 744 740 736 731 727 723 721 718 714 709 703 697 692 688 684 680 678 675 672 671 669 666 664